Location: Home
(42.5358°N, 72.7383°W)
Time: 11:08:43
(UTC-05:00)

A-11 Canister half - Pass Details

Date: 09 December 2021
Orbit: 1524 x 1684 km, 47.3° (Epoch: 19 January)

Event Time Altitude Azimuth Distance (km) Brightness Sun altitude
Rises 04:23:13 0° 290° (WNW) 4,939 - -29.7°
Reaches altitude 10° 04:26:25 10° 291° (WNW) 3,943 - -29.1°
Exits shadow 04:32:58 46° 299° (WNW) 2,119 9.2 -27.9°
Maximum altitude 04:36:37 82° 20° (NNE) 1,672 9.0 -27.2°
Drops below altitude 10° 04:46:30 10° 108° (ESE) 3,835 12.1 -25.4°
Sets 04:49:33 0° 110° (ESE) 4,798 12.9 -24.9°
